Latest Coastal Weather Observations for Carnarvon

IDW60701

Issued at 8:13 pm WST Sunday 22 January 2017 (issued every 10 minutes, with the page automatically refreshed every 10 minutes)

About coastal observations | Map of coastal stations | Coastal observations for WA | Marine services | Other Formats
Station Details ID: 006011 Name: CARNARVON AIRPORT Lat: -24.89 Lon: 113.67 Height: 4.0 m
Data from the previous 72 hours. | See also: Recent months at Carnarvon
Date/Time
WST
Temp
°C
Wind Pressure Rain since
9am
mm
Weather Cloud Vis
km
Sea
Height
m
Swell
Dir  Spd
kts
Gust
kts
hPa Trend Height
m
Period
s
Dir
22/08:00pm 24.0 S 21 29 1008.8 - 0.0 - - - - - - -
22/07:30pm 24.5 S 19 25 1008.6 - 0.0 - - - - - - -
22/07:00pm 24.7 SSW 17 24 1008.3 - 0.0 - - - - - - -
22/06:30pm 24.9 SSW 19 26 1008.1 - 0.0 - - - - - - -
22/06:00pm 25.5 SSW 20 27 1007.8 - 0.0 - - - - - - -
22/05:30pm 25.5 SSW 20 26 1007.6 - 0.0 - - - - - - -
22/05:00pm 25.6 SSW 22 27 1007.5 - 0.0 - - - - - - -
22/04:30pm 26.4 SSW 21 28 1007.7 - 0.0 - - - - - - -
22/04:00pm 26.7 SSW 22 30 1007.9 - 0.0 - - - - - - -
22/03:30pm 26.8 SSW 21 27 1008.1 - 0.0 - - - - - - -
22/03:00pm 26.7 SSW 22 27 1008.4 - 0.0 - - - - - - -
22/02:30pm 27.0 SSW 22 28 1008.6 - 0.0 - - - - - - -
22/02:00pm 26.9 SSW 20 26 1008.8 - 0.0 - - - - - - -
22/01:30pm 26.9 SSW 21 26 1009.0 - 0.0 - - - - - - -
22/01:00pm 26.8 SSW 19 24 1009.2 - 0.0 - - - - - - -
22/12:30pm 27.3 SSW 20 24 1009.3 - 0.0 - - - - - - -
22/12:00pm 27.2 SSW 19 23 1009.4 - 0.0 - - - - - - -
22/11:30am 26.1 SSW 17 22 1009.6 - 0.0 - - - - - - -
22/11:00am 26.6 SSW 18 23 1009.7 - 0.0 - - - - - - -
22/10:30am 26.5 S 18 22 1009.8 - 0.0 - - - - - - -
22/10:00am 25.6 S 19 23 1009.7 - 0.0 - - - - - - -
22/09:30am 25.3 S 17 21 1009.8 - 0.0 - - - - - - -
22/09:00am 24.9 SSW 16 21 1009.9 - 0.0 - - - - - - -
22/08:30am 24.5 S 15 19 1009.8 - 0.0 - - - - - - -
22/08:00am 23.7 S 15 19 1009.7 - 0.0 - Partly cloudy - - - - -
22/07:30am 23.1 S 15 20 1009.5 - 0.0 - - - - - - -
22/07:00am 22.6 S 15 19 1009.3 - 0.0 - Partly cloudy - - - - -
22/06:47am 22.3 S 15 20 1009.2 - 0.0 - Partly cloudy - - - - -
22/06:30am 22.0 SSW 16 21 1008.9 - 0.0 - Partly cloudy - - - - -
22/06:00am 21.8 SSW 14 18 1008.7 - 0.0 - Partly cloudy - - - - -
22/05:34am 21.8 SSW 15 19 1008.6 - 0.0 - Partly cloudy - - - - -
22/05:30am 21.8 SSW 15 19 1008.7 - 0.0 - Partly cloudy - - - - -
22/05:29am 21.8 SSW 15 19 1008.7 - 0.0 - Partly cloudy - - - - -
22/05:15am 21.8 SSW 14 18 1008.6 - 0.0 - Partly cloudy - - - - -
22/05:00am 21.8 S 13 17 1008.5 - 0.0 - Partly cloudy - - - - -
22/04:41am 21.8 SSW 15 19 1008.4 - 0.0 - Partly cloudy - - - - -
22/04:30am 21.9 SSW 14 17 1008.3 - 0.0 - Partly cloudy - - - - -
22/04:00am 22.1 SSW 13 17 1008.3 - 0.0 - Partly cloudy - - - - -
22/03:30am 22.0 SSW 13 17 1008.1 - 0.0 - Partly cloudy - - - - -
22/03:00am 22.1 SSW 12 16 1008.2 - 0.0 - Mostly cloudy - - - - -
22/02:30am 22.1 SSW 12 15 1008.0 - 0.0 - Partly cloudy - - - - -
22/02:00am 22.1 SW 12 17 1007.9 - 0.0 - Partly cloudy - - - - -
22/01:42am 22.0 SSW 13 16 1007.9 - 0.0 - Partly cloudy - - - - -
22/01:41am 22.1 SSW 13 16 1007.9 - 0.0 - Partly cloudy - - - - -
22/01:30am 22.0 SSW 13 17 1007.8 - 0.0 - Partly cloudy - - - - -
22/01:00am 22.1 SW 14 18 1008.0 - 0.0 - Partly cloudy - - - - -
22/12:30am 22.1 SW 14 19 1008.2 - 0.0 - Partly cloudy - - - - -
22/12:00am 22.3 SW 15 19 1008.4 - 0.0 - Partly cloudy - - - - -
 
Date/Time
WST
Temp
°C
Wind Pressure Rain since
9am
mm
Weather Cloud Vis
km
Sea
Height
m
Swell
Dir  Spd
kts
Gust
kts
hPa Trend Height
m
Period
s
Dir
21/11:30pm 22.3 SW 14 19 1008.3 - 0.0 - Partly cloudy - - - - -
21/11:00pm 22.4 SW 15 19 1008.5 - 0.0 - Partly cloudy - - - - -
21/10:30pm 22.5 SW 15 19 1008.5 - 0.0 - Cloudy - - - - -
21/10:00pm 22.6 SW 16 19 1008.2 - 0.0 - Partly cloudy - - - - -
21/09:30pm 22.7 SW 15 19 1008.3 - 0.0 - Partly cloudy - - - - -
21/09:21pm 22.8 SW 15 20 1008.2 - 0.0 - Partly cloudy - - - - -
21/09:00pm 22.8 SW 16 21 1007.9 - 0.0 - Mostly clear - - - - -
21/08:30pm 23.0 SW 15 19 1007.8 - 0.0 - - - - - - -
21/08:00pm 23.1 SW 17 22 1007.4 - 0.0 - - - - - - -
21/07:30pm 23.4 SW 16 21 1007.2 - 0.0 - - - - - - -
21/07:00pm 24.2 SW 15 21 1006.8 - 0.0 - - - - - - -
21/06:30pm 24.5 SW 16 21 1006.5 - 0.0 - - - - - - -
21/06:00pm 25.1 SW 18 23 1006.1 - 0.0 - - - - - - -
21/05:30pm 25.7 SW 16 21 1006.0 - 0.0 - - - - - - -
21/05:00pm 26.0 SW 17 21 1005.8 - 0.0 - - - - - - -
21/04:30pm 26.1 SW 17 22 1005.9 - 0.0 - - - - - - -
21/04:00pm 26.5 SW 17 21 1005.8 - 0.0 - - - - - - -
21/03:30pm 26.4 SW 17 22 1005.7 - 0.0 - - - - - - -
21/03:00pm 27.4 SW 15 19 1005.8 - 0.0 - - - - - - -
21/02:30pm 27.4 SW 16 21 1005.9 - 0.0 - - - - - - -
21/02:00pm 26.8 SW 15 20 1006.1 - 0.0 - - - - - - -
21/01:30pm 26.8 SW 16 21 1006.4 - 0.0 - - - - - - -
21/01:00pm 27.2 SW 16 21 1006.4 - 0.0 - - - - - - -
21/12:30pm 26.6 SW 17 20 1006.4 - 0.0 - - - - - - -
21/12:00pm 26.3 SW 15 21 1006.5 - 0.0 - - - - - - -
21/11:30am 25.6 SW 15 19 1006.5 - 0.0 - Partly cloudy - - - - -
21/11:00am 25.0 SSW 15 18 1006.8 - 0.0 - Partly cloudy - - - - -
21/10:39am 25.2 SSW 13 17 1007.0 - 0.0 - Partly cloudy - - - - -
21/10:30am 24.8 SSW 14 18 1007.2 - 0.0 - Partly cloudy - - - - -
21/10:26am 24.5 SSW 14 18 1007.3 - 0.0 - Partly cloudy - - - - -
21/10:00am 24.8 SSW 14 18 1007.3 - 0.0 - Partly cloudy - - - - -
21/09:30am 24.6 SSW 14 18 1007.2 - 0.0 - Partly cloudy - - - - -
21/09:17am 24.4 SSW 14 17 1007.3 - 0.0 - Partly cloudy - - - - -
21/09:00am 23.9 SSW 13 16 1007.4 - 0.0 - Partly cloudy - - - - -
21/08:58am 24.0 SSW 13 16 1007.5 - 0.0 - Partly cloudy - - - - -
21/08:30am 23.7 SSW 13 16 1007.2 - 0.0 - - - - - - -
21/08:00am 23.3 SSW 13 17 1006.9 - 0.0 - - - - - - -
21/07:30am 23.0 SSW 12 15 1006.8 - 0.0 - - - - - - -
21/07:00am 22.4 SSW 13 16 1006.5 - 0.0 - - - - - - -
21/06:30am 21.8 S 13 16 1006.1 - 0.0 - - - - - - -
21/06:00am 21.6 SSW 12 16 1005.8 - 0.0 - - - - - - -
21/05:30am 21.6 SSW 12 15 1005.7 - 0.0 - - - - - - -
21/05:00am 21.7 SSW 11 15 1005.4 - 0.0 - - - - - - -
21/04:30am 21.7 SSW 12 15 1005.3 - 0.0 - - - - - - -
21/04:00am 21.9 SSW 13 16 1005.2 - 0.0 - - - - - - -
21/03:30am 21.9 S 12 17 1005.1 - 0.0 - - - - - - -
21/03:00am 22.1 S 13 15 1005.2 - 0.0 - - - - - - -
21/02:30am 22.1 S 14 17 1005.3 - 0.0 - - - - - - -
21/02:00am 22.1 SSW 14 17 1005.5 - 0.0 - - - - - - -
21/01:30am 22.2 SSW 15 19 1005.8 - 0.0 - - - - - - -
21/01:00am 22.2 SSW 15 19 1005.9 - 0.0 - - - - - - -
21/12:30am 22.2 SSW 15 20 1006.0 - 0.0 - - - - - - -
21/12:00am 22.2 SSW 16 20 1006.2 - 0.0 - - - - - - -
 
Date/Time
WST
Temp
°C
Wind Pressure Rain since
9am
mm
Weather Cloud Vis
km
Sea
Height
m
Swell
Dir  Spd
kts
Gust
kts
hPa Trend Height
m
Period
s
Dir
20/11:30pm 22.3 SSW 15 20 1006.6 - 0.0 - - - - - - -
20/11:00pm 22.3 SSW 16 20 1006.9 - 0.0 - - - - - - -
20/10:30pm 22.4 S 18 22 1006.9 - 0.0 - - - - - - -
20/10:00pm 22.4 SSW 16 22 1006.9 - 0.0 - - - - - - -
20/09:30pm 22.5 SSW 18 23 1006.9 - 0.0 - - - - - - -
20/09:00pm 22.5 SSW 18 23 1007.2 - 0.0 - - - - - - -
20/08:30pm 22.6 SSW 19 25 1007.0 - 0.0 - - - - - - -
20/08:00pm 22.8 SSW 18 23 1006.7 - 0.0 - - - - - - -
20/07:30pm 22.9 SSW 20 27 1006.2 - 0.0 - - - - - - -
20/07:00pm 23.2 SSW 20 25 1005.8 - 0.0 - - - - - - -
20/06:30pm 24.0 SSW 20 27 1005.5 - 0.0 - - - - - - -
20/06:00pm 24.5 SSW 20 26 1005.0 - 0.0 - - - - - - -
20/05:30pm 25.3 SSW 20 26 1004.6 - 0.0 - - - - - - -
20/05:00pm 24.8 SSW 18 23 1004.6 - 0.0 - - - - - - -
20/04:30pm 25.7 SSW 17 21 1004.7 - 0.0 - - - - - - -
20/04:00pm 26.0 SSW 16 21 1004.8 - 0.0 - - - - - - -
20/03:30pm 27.2 SSW 17 21 1005.0 - 0.0 - - - - - - -
20/03:00pm 25.8 SSW 17 21 1005.1 - 0.0 Fine Mostly cloudy 29 - - - -
20/02:30pm 26.0 SSW 17 23 1005.3 - 0.0 - - - - - - -
20/02:00pm 25.4 SSW 16 19 1005.5 - 0.0 - - - - - - -
20/01:30pm 25.6 SSW 15 18 1005.8 - 0.0 - - - - - - -
20/01:00pm 25.2 SSW 16 19 1006.1 - 0.0 - - - - - - -
20/12:30pm 25.0 SSW 15 18 1006.5 - 0.0 - - - - - - -
20/12:00pm 24.9 SSW 17 21 1006.8 - 0.0 - - - - - - -
20/11:30am 23.5 SSW 17 21 1007.1 - 0.0 - - - - - - -
20/11:00am 23.7 SSW 17 21 1007.4 - 0.0 - - - - - - -
20/10:30am 23.5 SSW 16 20 1007.7 - 0.0 - - - - - - -
20/10:00am 24.7 S 14 18 1008.0 - 0.0 - - - - - - -
20/09:30am 24.2 SSE 15 20 1008.0 - 0.0 - - - - - - -
20/09:00am 23.3 SSE 15 20 1008.1 - 0.0 Fine Mostly cloudy 25 - - - -
20/08:30am 21.9 S 17 23 1008.0 - 0.0 - - - - - - -
20/08:00am 21.5 S 17 22 1008.3 - 0.0 - - - - - - -
20/07:30am 20.6 S 15 20 1008.3 - 0.0 - - - - - - -
20/07:00am 20.1 S 15 20 1008.0 - 0.0 - - - - - - -
20/06:30am 19.7 S 14 18 1007.8 - 0.0 - - - - - - -
20/06:00am 19.5 S 15 19 1007.7 - 0.0 - - - - - - -
20/05:30am 19.6 S 16 23 1007.4 - 0.0 - - - - - - -
20/05:00am 19.8 S 18 22 1007.1 - 0.0 - - - - - - -
20/04:30am 20.0 S 19 25 1007.0 - 0.0 - - - - - - -
20/04:00am 20.0 S 17 23 1007.1 - 0.0 - - - - - - -
20/03:30am 20.2 S 18 23 1007.0 - 0.0 - - - - - - -
20/03:00am 20.5 S 21 29 1006.9 - 0.0 - - - - - - -
20/02:30am 20.7 S 18 25 1006.9 - 0.0 - - - - - - -
20/02:00am 20.9 S 20 27 1006.8 - 0.0 - - - - - - -
20/01:30am 20.9 S 21 28 1007.0 - 0.0 - - - - - - -
20/01:00am 20.9 S 21 26 1007.4 - 0.0 - - - - - - -
20/12:30am 21.0 S 18 24 1008.0 - 0.0 - - - - - - -
20/12:00am 21.0 S 19 26 1008.2 - 0.0 - - - - - - -
 
Date/Time
WST
Temp
°C
Wind Pressure Rain since
9am
mm
Weather Cloud Vis
km
Sea
Height
m
Swell
Dir  Spd
kts
Gust
kts
hPa Trend Height
m
Period
s
Dir
19/11:30pm 21.1 S 21 27 1008.3 - 0.0 - - - - - - -
19/11:00pm 21.3 S 20 25 1008.5 - 0.0 - - - - - - -
19/10:30pm 21.5 S 21 27 1008.7 - 0.0 - - - - - - -
19/10:00pm 21.5 S 23 30 1008.5 - 0.0 - - - - - - -
19/09:30pm 21.7 S 22 28 1008.4 - 0.0 - - - - - - -
19/09:00pm 22.0 S 23 30 1008.2 - 0.0 - - - - - - -
19/08:30pm 22.5 S 21 29 1008.0 - 0.0 - - - - - - -
19/08:25pm 22.6 S 21 31 1007.9 - 0.0 - - - - - - -

Other Formats:

Comma delimited format used in spreadsheet applications
http://www.bom.gov.au/fwo/IDW60701/IDW60701.94300.axf

JavaScript Object Notation format (JSON) in row-major order
http://www.bom.gov.au/fwo/IDW60701/IDW60701.94300.json